Temp
15 15 15 15 15 14 14 13 13 13 13 13 13 13 13 13 13 13 13 13 13 13 12 12 13 13 13 13 13 13 12 12 12 11 11 11 11 11 11 11 10 9 9
15 15 15 15 15 14 14 13 13 13 13 13 13 13 13 13 13 13 13 13 13 12 12 12 13 13 13 12 12 12 12 12 13 11 11 11 11 11 10 9 10 9 10
15 15 15 15 14 14 13 13 13 13 13 13 13 13 13 13 13 13 13 13 12 12 12 12 12 12 12 13 13 13 13 12 12 11 11 11 10 9 9 10 10 9 9
16 16 15 15 14 14 13 13 13 13 13 13 13 13 13 12 12 12 12 12 12 12 12 12 12 12 12 12 12 12 12 12 10 11 10 9 9 10 9 9 9 9 9
16 16 16 15 14 14 13 13 14 14 14 14 13 13 13 12 11 12 12 12 12 13 13 12 12 12 12 12 12 11 11 11 10 10 9 9 9 9 10 9 9 9 8
16 16 16 14 14 14 13 13 13 14 14 14 13 13 13 12 11 11 12 12 12 12 13 12 12 11 11 11 11 11 11 11 10 9 9 10 10 10 10 10 10 9 8
17 16 15 15 14 14 13 13 13 13 13 13 13 13 12 12 11 12 12 13 13 12 12 12 12 11 11 11 11 11 10 10 11 12 11 11 11 11 11 10 10 11 11
17 16 15 15 14 14 13 13 13 13 13 13 13 13 13 13 12 12 12 12 12 12 12 12 12 11 11 11 11 10 10 10 11 11 12 12 11 11 12 12 11 10 9
17 16 15 15 14 14 13 14 13 13 13 12 12 13 13 13 12 12 12 12 12 12 11 11 12 11 11 11 11 10 10 11 11 11 11 11 11 11 11 10 10 10 10
17 17 16 15 15 14 14 14 13 13 12 12 13 12 13 13 12 12 12 12 12 11 11 11 11 11 10 11 11 11 11 11 11 10 11 11 11 10 10 11 12 12 12
17 17 16 15 15 14 14 14 13 12 12 12 12 12 12 13 12 12 12 12 12 12 11 10 10 10 10 11 11 11 12 11 11 10 10 10 10 10 11 11 11 12 12
18 17 16 16 15 14 14 13 13 12 11 11 11 11 12 12 12 12 11 12 12 12 10 11 10 10 11 11 11 11 11 11 10 10 10 10 10 10 10 10 10 11 11
18 17 16 16 15 14 14 14 13 13 13 12 12 12 12 11 11 11 11 12 12 11 11 11 11 10 10 10 10 10 10 10 10 10 10 11 11 10 10 10 10 10 10
18 17 16 15 15 15 14 14 14 13 13 13 13 12 12 11 11 11 11 11 11 11 11 11 11 11 10 11 10 10 10 10 11 11 11 11 11 10 10 11 11 11 11
18 17 17 16 15 15 14 14 15 14 14 14 14 13 12 12 12 11 12 12 12 12 12 11 11 11 11 11 10 10 10 11 11 11 11 11 11 11 11 11 11 11 11
18 18 17 16 15 15 14 14 15 15 16 15 14 14 13 13 12 12 12 12 12 12 12 12 12 12 12 12 11 11 12 12 12 12 12 12 12 12 12 12 11 12 12
18 18 17 16 15 15 15 15 15 15 16 15 15 15 15 14 13 12 12 12 12 12 13 13 13 13 13 13 12 12 12 12 12 12 12 12 12 12 12 12 12 12 12
19 18 18 17 16 16 15 15 16 16 16 15 14 15 15 15 14 13 12 12 12 12 13 12 13 13 13 13 13 13 12 12 13 13 12 13 13 13 12 13 13 13 13
19 18 18 17 16 16 16 16 16 16 16 16 15 14 14 14 14 14 13 13 13 13 13 13 13 13 13 14 14 13 13 13 13 13 13 13 14 13 13 14 14 13 12
19 19 18 17 17 17 16 16 16 16 16 16 15 15 15 14 14 13 13 14 14 14 13 13 13 13 13 14 14 14 14 14 14 14 14 14 14 14 13 14 13 13 13
20 19 18 18 18 17 17 17 17 17 16 17 17 16 16 15 15 14 14 13 13 14 14 14 14 14 14 14 15 15 15 15 14 14 14 14 14 14 14 13 13 13 13
20 20 19 18 18 18 18 18 18 17 17 17 17 17 17 16 16 15 15 15 15 15 15 15 15 14 15 15 15 15 15 15 15 15 15 15 14 14 14 14 13 13 13
21 21 20 20 19 18 19 19 19 18 18 18 18 18 17 17 17 16 16 17 16 16 16 15 15 15 15 15 15 15 15 15 15 15 15 15 15 15 14 14 14 13 13
19 20 20 21 20 19 19 19 19 19 19 19 19 18 18 18 18 18 18 17 17 17 17 16 16 16 15 15 15 15 15 15 15 15 15 15 15 15 15 14 14 13 13
19 19 20 20 20 20 20 20 20 20 19 19 19 19 19 19 19 19 19 18 18 18 17 17 17 17 16 16 15 15 15 16 16 16 16 16 15 15 15 15 15 14 13
18 19 19 20 20 20 21 20 20 20 20 20 19 19 19 19 19 19 19 19 19 19 18 18 18 18 17 17 17 16 16 16 16 16 16 16 16 15 15 15 15 14 14
Height
1429 1433 1436 1439 1440 1441 1441 1442 1444 1445 1446 1446 1447 1447 1448 1448 1449 1449 1449 1450 1450 1451 1451 1452 1452 1453 1453 1454 1455 1458 1463 1469 1471 1478 1483 1486 1490 1494 1499 1504 1508 1513 1520
1430 1434 1437 1439 1440 1440 1440 1441 1443 1446 1446 1448 1448 1448 1448 1449 1449 1449 1449 1450 1450 1450 1450 1451 1451 1451 1451 1453 1455 1458 1463 1468 1471 1475 1481 1486 1491 1496 1500 1505 1512 1518 1523
1431 1434 1436 1438 1438 1439 1439 1441 1443 1445 1446 1448 1448 1448 1448 1449 1449 1448 1448 1449 1448 1449 1449 1449 1450 1450 1451 1453 1456 1458 1463 1467 1472 1476 1481 1487 1492 1497 1503 1509 1514 1519 1526
1431 1434 1436 1437 1438 1438 1440 1442 1444 1445 1447 1448 1449 1448 1448 1448 1448 1448 1448 1449 1449 1449 1449 1450 1451 1452 1454 1457 1459 1462 1464 1468 1473 1478 1482 1488 1494 1498 1504 1511 1518 1525 1528
1431 1434 1435 1436 1438 1439 1440 1442 1444 1446 1447 1448 1448 1448 1448 1447 1448 1448 1449 1450 1450 1449 1450 1451 1453 1455 1456 1457 1458 1461 1465 1469 1474 1478 1483 1489 1494 1499 1506 1513 1519 1526 1532
1431 1433 1434 1436 1438 1439 1440 1442 1444 1446 1447 1448 1448 1448 1447 1448 1448 1448 1449 1450 1450 1450 1451 1452 1452 1454 1456 1458 1460 1463 1465 1468 1474 1479 1483 1489 1497 1504 1511 1515 1521 1527 1533
1430 1432 1434 1436 1438 1439 1440 1442 1444 1445 1447 1448 1448 1448 1448 1448 1449 1450 1451 1451 1451 1451 1452 1453 1454 1456 1457 1459 1463 1465 1468 1473 1478 1481 1487 1493 1501 1507 1512 1519 1524 1528 1533
1429 1431 1434 1436 1438 1439 1440 1442 1444 1446 1447 1448 1448 1449 1450 1450 1451 1451 1452 1452 1452 1453 1454 1455 1456 1458 1460 1462 1465 1469 1473 1480 1484 1489 1494 1500 1505 1511 1517 1521 1525 1530 1537
1428 1430 1434 1436 1437 1439 1440 1442 1444 1445 1447 1448 1449 1450 1451 1452 1453 1453 1453 1454 1454 1455 1457 1458 1460 1461 1464 1466 1468 1473 1478 1485 1491 1497 1502 1507 1512 1516 1520 1524 1530 1533 1538
1428 1430 1433 1435 1437 1439 1440 1442 1444 1445 1446 1447 1449 1451 1452 1453 1454 1456 1456 1456 1457 1458 1460 1461 1464 1465 1467 1470 1473 1477 1482 1488 1494 1501 1506 1512 1516 1520 1525 1529 1531 1534 1539
1426 1429 1432 1435 1437 1439 1440 1442 1444 1444 1446 1447 1449 1451 1453 1454 1455 1457 1458 1459 1459 1460 1462 1464 1465 1468 1471 1474 1479 1482 1487 1493 1498 1504 1508 1514 1520 1524 1528 1532 1535 1539 1541
1425 1428 1431 1435 1437 1439 1441 1443 1444 1445 1445 1447 1449 1451 1453 1455 1456 1458 1461 1462 1462 1462 1464 1466 1469 1471 1475 1478 1482 1487 1493 1498 1502 1507 1513 1518 1522 1525 1530 1534 1536 1539 1541
1423 1428 1431 1434 1437 1439 1441 1443 1444 1446 1446 1447 1449 1450 1452 1454 1456 1459 1461 1463 1464 1465 1467 1470 1472 1474 1478 1482 1487 1491 1495 1501 1506 1510 1514 1518 1523 1528 1530 1533 1536 1539 1541
1422 1427 1430 1433 1437 1440 1442 1443 1444 1445 1447 1448 1449 1450 1451 1454 1456 1459 1462 1465 1467 1469 1470 1473 1476 1478 1482 1485 1490 1495 1499 1504 1508 1512 1516 1520 1524 1526 1529 1532 1535 1538 1540
1421 1426 1430 1433 1436 1439 1442 1443 1445 1446 1447 1448 1448 1449 1450 1452 1456 1460 1463 1466 1469 1472 1474 1476 1479 1481 1483 1488 1492 1496 1500 1505 1509 1513 1516 1518 1521 1524 1528 1532 1535 1537 1538
1419 1423 1427 1431 1435 1438 1440 1442 1444 1446 1446 1449 1450 1451 1452 1455 1457 1461 1465 1468 1471 1473 1476 1479 1481 1484 1486 1489 1493 1497 1502 1506 1509 1512 1515 1517 1520 1524 1527 1530 1532 1534 1535
1415 1420 1424 1428 1432 1436 1439 1441 1443 1446 1446 1449 1452 1454 1455 1455 1458 1462 1466 1470 1473 1475 1477 1480 1482 1485 1488 1491 1494 1498 1501 1504 1508 1511 1514 1517 1520 1523 1525 1526 1528 1530 1531
1413 1417 1422 1426 1429 1433 1437 1440 1442 1445 1447 1449 1451 1454 1456 1458 1461 1464 1467 1470 1473 1476 1479 1481 1484 1486 1489 1492 1495 1498 1501 1504 1507 1510 1512 1515 1517 1520 1521 1522 1523 1524 1525
1410 1414 1419 1423 1427 1430 1434 1437 1440 1443 1445 1448 1450 1453 1455 1458 1460 1463 1465 1467 1469 1473 1477 1480 1483 1485 1488 1490 1494 1496 1499 1502 1504 1506 1509 1511 1514 1516 1517 1517 1517 1518 1519
1407 1411 1416 1420 1423 1427 1430 1434 1436 1439 1441 1443 1446 1450 1452 1455 1456 1458 1460 1463 1466 1470 1473 1475 1478 1482 1485 1487 1490 1493 1495 1497 1499 1502 1504 1505 1507 1508 1508 1509 1509 1511 1512
1401 1407 1412 1416 1420 1422 1426 1429 1432 1434 1437 1439 1441 1444 1446 1449 1452 1455 1458 1460 1462 1465 1468 1471 1473 1476 1479 1481 1484 1486 1488 1490 1492 1494 1496 1498 1500 1500 1502 1503 1505 1506 1507
1395 1400 1406 1410 1415 1418 1421 1424 1427 1430 1432 1434 1437 1440 1442 1444 1446 1448 1451 1453 1456 1459 1462 1465 1468 1470 1472 1474 1476 1479 1480 1481 1484 1486 1488 1490 1492 1494 1496 1498 1499 1499 1500
1389 1394 1399 1403 1408 1412 1416 1418 1421 1424 1426 1428 1430 1433 1436 1437 1439 1441 1443 1446 1449 1451 1454 1457 1459 1461 1464 1466 1468 1470 1472 1473 1476 1479 1481 1482 1484 1486 1488 1488 1489 1490 1492
1388 1389 1392 1395 1400 1405 1408 1411 1414 1417 1420 1423 1424 1423 1426 1430 1431 1433 1436 1438 1440 1443 1445 1448 1450 1452 1454 1456 1459 1462 1464 1467 1470 1472 1474 1475 1476 1478 1479 1480 1481 1483 1484
1384 1389 1390 1392 1395 1398 1401 1404 1407 1410 1413 1416 1419 1418 1419 1421 1423 1425 1427 1430 1432 1434 1436 1437 1439 1441 1443 1446 1449 1451 1454 1456 1458 1461 1463 1465 1466 1467 1469 1471 1473 1474 1475
1380 1383 1386 1389 1388 1391 1394 1397 1400 1403 1405 1408 1411 1412 1413 1414 1416 1418 1420 1422 1423 1425 1427 1429 1430 1432 1435 1437 1439 1442 1444 1446 1449 1452 1455 1456 1457 1458 1459 1461 1463 1464 1465
Wind_Speed
13 13 11 9 8 6 3 7 10 8 5 4 4 4 4 3 2 3 4 3 3 4 3 5 7 6 6 7 9 24 20 25 26 21 22 19 22 27 32 29 36 38 39
13 13 11 7 8 6 5 9 11 9 9 6 9 5 4 3 1 3 4 2 0 3 4 2 2 6 7 10 17 22 22 25 23 30 31 27 30 26 38 40 42 39 35
15 13 9 9 7 5 7 10 16 14 11 8 6 4 3 1 1 3 3 1 5 5 5 5 11 11 13 16 18 21 19 24 27 33 33 33 42 43 47 44 41 40 36
16 13 9 7 2 6 10 15 13 10 10 9 8 5 4 3 5 5 5 7 5 4 4 7 9 11 13 18 15 13 16 22 30 35 40 43 44 44 48 43 39 33 31
17 13 8 5 6 5 11 15 13 11 10 9 7 5 5 6 7 5 8 5 2 4 8 10 9 12 13 12 15 18 18 25 32 37 46 47 47 48 45 40 37 32 27
17 10 8 10 8 6 11 17 13 12 11 9 4 3 5 2 6 7 8 7 4 5 7 10 9 7 12 13 14 14 19 33 47 45 46 50 48 46 41 36 34 31 28
15 11 10 9 9 8 11 17 16 13 11 4 4 5 6 6 10 10 10 8 5 6 8 9 11 12 16 17 15 16 33 32 35 41 51 48 43 40 35 32 31 28 30
15 12 13 11 10 9 9 13 16 15 13 10 6 7 10 11 11 10 9 9 8 10 9 11 11 16 16 19 19 33 38 33 35 44 40 41 34 35 31 26 30 30 26
17 14 12 9 12 11 9 9 10 11 12 11 9 11 12 13 11 11 9 10 13 12 10 11 13 15 16 18 24 33 39 35 33 33 29 29 26 25 26 31 28 27 27
21 12 16 13 12 10 8 10 11 11 14 14 12 11 10 10 10 9 10 11 13 13 12 12 12 15 17 18 23 30 37 38 31 33 30 29 30 26 27 22 23 22 24
18 14 19 15 13 9 11 11 10 11 13 15 14 11 12 10 10 10 11 8 9 10 15 15 15 16 17 19 21 31 40 36 28 33 30 32 29 28 23 19 17 13 17
17 20 19 16 14 11 14 14 10 10 15 16 14 13 12 12 11 11 12 8 6 11 19 18 19 17 17 19 24 28 34 31 33 35 32 29 27 28 21 17 16 11 10
19 24 20 17 13 13 14 14 12 11 12 13 13 13 13 13 16 14 16 13 10 16 22 22 20 20 22 19 25 31 32 29 32 35 32 28 25 26 22 22 20 16 12
24 25 24 20 15 13 13 13 12 12 11 13 13 12 11 15 19 20 22 17 16 21 21 21 20 19 20 25 26 26 30 31 30 33 31 26 25 27 23 22 21 20 16
27 26 22 16 16 14 15 15 13 10 8 9 9 11 13 20 22 24 23 20 21 20 21 20 18 20 24 26 26 27 31 33 30 26 25 26 27 26 24 22 20 18 17
31 28 25 19 19 16 19 16 12 11 8 11 6 8 10 14 21 26 22 18 20 22 20 19 19 21 26 28 29 29 28 29 26 24 24 26 26 26 24 22 20 21 22
33 31 28 23 24 19 21 20 15 13 7 16 10 8 9 13 19 26 21 21 21 20 21 21 21 24 27 29 29 29 28 24 21 23 23 22 21 21 21 22 22 22 24
32 31 29 25 28 24 22 22 19 16 16 19 18 12 9 9 16 21 24 22 25 21 22 21 20 22 25 27 26 25 23 21 24 24 23 21 20 21 23 27 27 27 25
33 33 30 27 27 27 23 23 20 23 20 20 19 19 17 16 14 16 23 27 28 26 27 24 21 21 22 22 24 26 24 22 24 25 28 31 25 24 23 25 26 26 25
35 34 32 28 29 27 28 27 26 24 23 26 26 25 24 23 24 26 27 27 28 28 29 28 27 27 28 25 24 23 26 27 28 27 33 27 28 29 29 27 28 30 32
37 35 33 30 31 28 29 30 29 28 28 25 21 26 29 29 29 28 29 31 31 30 30 31 30 30 26 29 29 28 29 28 30 31 32 35 36 35 35 33 31 33 34
38 35 33 34 31 33 32 30 30 31 29 30 27 24 22 27 32 32 32 32 33 33 32 32 34 34 32 30 34 33 33 34 34 35 35 35 36 37 37 36 35 34 35
40 37 36 32 36 31 32 32 32 33 32 30 30 29 29 30 28 28 31 33 33 34 34 34 32 31 34 38 33 30 34 35 34 34 36 36 36 37 36 37 37 36 35
34 40 38 36 34 38 33 34 35 34 34 34 32 34 32 31 31 30 28 26 27 29 33 37 39 38 35 34 34 37 36 35 33 34 34 36 37 38 38 37 37 37 37
10 30 38 36 35 30 39 34 34 36 36 36 36 38 37 35 34 34 33 33 31 30 29 29 35 39 43 42 41 39 38 36 37 37 38 38 39 38 37 38 39 40 38
7 11 11 38 37 36 33 36 39 35 38 39 38 39 40 41 40 38 37 36 36 34 33 31 30 31 33 33 33 39 43 40 37 35 34 37 40 40 38 36 37 39 40
Wind_Direction
168 162 177 180 201 212 240 175 155 153 162 136 125 127 129 147 190 216 207 207 208 203 203 185 179 201 198 207 202 165 177 192 173 166 170 162 159 159 155 159 157 148 149
167 170 184 187 215 219 244 181 176 149 128 114 92 93 107 147 180 194 176 203 48 137 107 155 179 166 190 173 165 170 178 187 173 148 163 166 160 172 161 142 145 147 149
173 171 185 201 214 235 174 153 160 160 152 145 140 171 206 233 188 182 159 117 120 148 163 120 152 141 163 155 171 175 172 177 165 152 158 161 152 146 149 150 148 142 143
177 175 190 200 190 178 166 156 140 160 155 161 180 223 248 239 166 152 132 122 151 134 146 147 135 147 145 144 138 143 147 156 159 160 153 150 154 153 152 145 139 145 149
177 181 199 187 167 163 173 160 160 160 180 182 208 238 243 133 133 123 122 126 76 107 125 155 160 161 171 181 178 174 174 166 163 148 147 146 145 140 143 148 146 148 151
183 185 183 161 160 162 161 160 157 170 191 195 220 196 138 117 129 136 142 136 151 135 122 129 128 142 162 160 161 177 185 170 154 143 141 145 146 149 154 158 158 156 151
182 182 156 156 159 155 162 176 169 170 183 190 171 165 124 131 117 125 115 112 109 126 136 139 126 125 140 145 150 158 168 167 163 162 154 153 155 159 162 161 162 165 161
173 172 157 170 159 157 160 168 180 191 196 179 175 134 133 127 119 111 116 128 122 112 117 131 128 130 138 144 144 162 154 159 163 160 159 157 155 161 167 165 168 164 156
176 165 167 175 175 170 170 163 161 177 178 172 152 143 135 129 126 123 121 131 139 128 125 133 139 136 150 151 151 163 155 155 157 156 153 161 165 166 168 164 158 163 162
178 171 175 176 166 173 165 162 164 166 172 174 165 163 154 140 136 137 125 133 140 134 128 126 128 134 152 168 163 160 161 158 156 156 152 150 157 156 160 163 164 169 166
183 179 175 174 176 164 160 161 160 170 182 178 183 174 170 155 152 139 128 141 145 147 144 136 132 137 142 160 155 164 162 162 162 155 158 158 159 159 159 169 176 181 177
181 175 167 161 176 161 164 156 140 141 153 173 179 180 164 160 166 157 143 159 144 147 140 135 126 140 144 167 164 168 164 160 162 163 156 157 165 167 165 175 178 180 189
180 174 171 169 172 168 170 160 150 147 143 147 163 177 178 172 172 159 156 153 131 141 132 128 122 132 154 154 162 166 173 165 171 172 169 170 171 172 180 184 190 203 218
183 175 170 175 177 170 159 161 161 159 160 158 163 165 167 168 169 165 162 156 139 136 133 128 123 124 140 144 148 165 174 171 172 174 178 179 175 185 194 196 202 213 224
185 183 186 192 188 180 166 169 169 176 174 166 167 174 165 167 167 164 165 162 157 149 139 140 139 144 153 158 159 164 175 175 180 180 180 182 190 198 203 206 213 223 224
191 191 191 193 191 182 180 187 186 192 203 210 135 111 130 158 165 167 166 164 160 169 167 158 151 153 158 162 164 168 170 176 179 187 194 198 203 207 208 214 226 238 238
197 197 195 197 195 192 187 197 183 174 163 171 160 133 113 148 166 173 173 173 170 167 171 168 168 168 167 164 166 171 175 184 191 193 198 205 210 217 223 232 238 242 240
207 205 203 201 200 201 199 203 206 202 186 176 186 169 165 156 168 171 174 178 178 178 176 172 173 179 183 181 182 185 187 198 202 206 214 223 232 234 238 243 240 239 243
208 205 207 205 204 205 205 206 210 210 209 206 189 183 184 186 182 182 182 183 185 185 183 184 192 194 194 196 201 196 200 208 211 215 226 229 235 234 241 242 242 246 250
209 211 208 205 207 209 208 209 214 216 214 217 212 212 204 195 196 194 198 200 200 198 194 194 200 211 215 221 221 219 217 217 220 225 223 227 233 237 241 249 245 245 248
210 212 211 209 211 212 212 213 213 218 221 223 223 223 223 221 215 214 212 212 215 215 211 206 203 206 214 217 225 229 232 230 229 231 230 232 237 238 243 248 253 253 253
210 213 213 211 213 215 217 216 217 220 226 228 230 229 229 231 231 229 226 224 225 225 223 222 221 218 215 215 221 229 231 232 234 236 239 241 243 245 248 249 251 252 249
215 215 214 215 211 215 220 221 219 219 226 231 234 235 229 229 231 234 237 238 236 234 233 232 229 224 224 223 225 231 237 237 238 239 241 245 247 247 246 247 247 246 247
209 217 219 215 217 212 216 226 224 224 222 226 234 240 238 236 238 239 241 240 239 240 241 239 237 236 235 231 230 233 238 245 246 247 245 246 250 250 252 249 248 248 249
189 217 222 223 218 217 218 222 230 229 227 226 225 234 242 245 245 244 246 247 248 248 248 246 240 239 239 237 236 237 238 242 245 246 246 246 247 248 249 252 253 251 248
240 196 216 225 228 226 228 229 228 233 235 232 230 233 237 242 245 248 250 250 249 250 252 252 251 244 239 238 240 240 239 239 242 245 247 248 248 249 248 252 254 251 250